Regional Weather Roundup
Issued by NWS

Home | Current Version | Previous Version | Graphics & Text | Print | Product List | Glossary On
Versions: 1 2 3 4 5 6 7 8 9 10 11 12 13 14 15 16 17 18 19 20 21 22 23 24 25 26 27 28 29 30 31 32 33 34 35 36 37 38 39 40 41 42 43 44 45 46 47 48 49 50
000
ASUS43 KDTX 190410
RWRMI
MICHIGAN HOURLY REGIONAL WEATHER ROUNDUP
NATIONAL WEATHER SERVICE DETROIT/PONTIAC MI
1200 AM EDT TUE SEP 19 2017

NOTE: "FAIR" INDICATES FEW OR NO CLOUDS BELOW 12,000 FEET WITH NO
SIGNIFICANT WEATHER AND/OR OBSTRUCTION TO VISIBILITY.

MIZ047>049-052>055-059>063-066>070-074>076-081>083-190500-
SOUTHEAST LOWER MICHIGAN

CITY           SKY/WX    TMP DP  RH WIND       PRES   REMARKS
ADRIAN         CLOUDY    66  62  87 E6        30.05F
ALMA           CLOUDY    56  52  85 W3        30.06F
ANN ARBOR      MOCLDY    65  60  84 NE6       30.05S
BAD AXE        CLOUDY    49  47  93 CALM      30.08S
CARO           CLEAR     53  51  94 CALM      30.07S
DETROIT CITY   CLOUDY    64  59  83 NE6       30.05F
DETROIT        CLOUDY    66  58  75 NE6       30.05F
FLINT          CLEAR     57  53  86 E6        30.06F
GROSSE ILE     CLOUDY    64  62  93 NE5       30.04S
HILLSDALE      CLOUDY    66  63  88 E6        30.04F FOG
HOWELL         CLEAR     60  59  96 CALM      30.05F

CITY           SKY/WX    TMP DP  RH WIND       PRES   REMARKS
JACKSON        CLOUDY    66  62  87 E6        30.05S
LAMBERTVILLE   CLOUDY    66  63  90 CALM      30.04S FOG
LANSING        CLOUDY    59  54  83 E5        30.06S
LAPEER         FAIR      54  53  96 CALM      30.07F
MASON          PTCLDY    63  60  92 CALM      30.05F
MONROE         CLOUDY    65  63  91 NE3       30.04S
MT. CLEMENS    CLOUDY    62  62 100 N7        30.04F
PONTIAC        PTCLDY    60  55  83 NE6       30.05F
PORT HOPE        N/A     54  52  93 CALM      30.06F
PORT HURON     MOCLDY    59  57  94 CALM      30.06S
TRI CITIES     PTCLDY    59  56  89 E5        30.09R
MIDLAND        FAIR      59  56  90 E5        30.07S
TROY           CLOUDY    63  58  82 NE7       30.07F
SAGINAW HB     PTCLDY    55  54  94 CALM      30.07S
$$
MIZ043>046-050>051-056>058-064>065-071>073-077>080-190500-
SOUTHWEST LOWER MICHIGAN

CITY           SKY/WX    TMP DP  RH WIND       PRES   REMARKS
BATTLE CREEK   MOCLDY    66  58  75 E6        30.03F
BENTON HARBOR  CLOUDY    61  58  90 CALM      30.00F
BIG RAPIDS     CLOUDY    55  51  86 E3        30.05F
COLDWATER      CLOUDY    65  62  89 SE5       30.03F
FREMONT        FAIR      62  53  72 CALM      30.03S
HOLLAND        PTCLDY    59  57  93 E5        30.02F
GRAND RAPIDS   PTCLDY    63  56  78 E8        30.03F
IONIA          FAIR      60  54  78 E6        30.04S
KALAMAZOO      CLOUDY    63  53  70 CALM      30.03F
LUDINGTON      PTCLDY    55  52  89 CALM      30.03S
MARSHALL       MOCLDY    63  63  99 CALM      30.04S
MOUNT PLEASANT CLOUDY    61  58  91 NE3       30.06S
MUSKEGON       CLEAR     63  54  72 E5        30.02F
SOUTH HAVEN    PTCLDY    60  59  95 CALM      30.01F
$$
MIZ016>042-190500-
NORTHERN LOWER MICHIGAN

CITY           SKY/WX    TMP DP  RH WIND       PRES   REMARKS
ALPENA         CLEAR     49  49 100 CALM      30.09S
BEAVER ISLAND  PTCLDY    49  49  98 CALM      30.08S
BELLAIRE       CLEAR     49  47  95 CALM      30.07F
CADILLAC       PTCLDY    58  53  83 E7        30.06F
CHARLEVOIX     PTCLDY    58  54  88 E5        30.10F
FRANKFORT      MOCLDY    60  51  71 E3        30.05F
GAYLORD        CLEAR     50  44  80 CALM      30.09S
GRAYLING       PTCLDY    49  46  92 CALM      30.09F
HARBOR SPRINGS CLEAR     51  49  94 NE3       30.08F
HOUGHTON LAKE  PTCLDY    53  52  96 E3        30.10S
MANISTEE       CLOUDY    56  51  84 E6        30.03F
OSCODA         PTCLDY    51  49  92 W3        30.08S
PELLSTON       CLEAR     46  46 100 CALM      30.09S
ROGERS CITY    CLEAR     49  47  93 CALM      30.10S
TRAVERSE CITY  PTCLDY    54  49  83 CALM      30.06S
$$
MIZ007>008-015-190500-
EASTERN UPPER MICHIGAN

CITY           SKY/WX    TMP DP  RH WIND       PRES   REMARKS
KINROSS        PTCLDY    54  48  80 CALM      30.10R
MACKINAC ISLAN PTCLDY    56  52  84 NE7       30.08S
NEWBERRY       PTCLDY    52  51  97 N5        30.10R
S. S. MARIE    MOCLDY    56  49  77 NE3       30.08F
MUNISING         N/A     59  53  80 CALM      30.08S
$$
MIZ004>006-011>014-085-190500-
CENTRAL UPPER MICHIGAN

CITY           SKY/WX    TMP DP  RH WIND       PRES   REMARKS
MANISTIQUE     CLOUDY    52  46  81 N5        30.07S
ESCANABA       CLOUDY    58  53  84 N5        30.05F
MENOMINEE      PTCLDY    62  51  67 E8        30.05S
SAWYER-GWINN   DRIZZLE   56  51  84 CALM      30.08S
$$
MIZ001>003-009>011-084-190500-
WESTERN UPPER MICHIGAN

CITY           SKY/WX    TMP DP  RH WIND       PRES   REMARKS
IRON MOUNTAIN  CLOUDY    57  52  83 NW6       30.07R
HOUGHTON       LGT RAIN  56  53  90 E5        30.08R
COPPER HARBOR    N/A     56  53  90 CALM      30.08R
IRONWOOD       CLOUDY    54  53  97 E3        30.05S
$$

ABBREVIATIONS USED IN REMARKS
   TC - TEMPERATURE IN CELSIUS
  WCI - WIND CHILL INDEX
   HX - HEAT INDEX
  VSB - VISIBILITY




USA.gov is the U.S. government's official web portal to all federal, state and local government web resources and services.